DW0880 Gualdo Tadino IT current weather conditions

sailwx.info

Wind from 223

Air temperature 6.1° C
Dewpoint 4.6° C

Last reported at 2020-Jan-27 08:01 UTC.
Time now 2020-Jan-27 09:03 UTC

Location: N 43°16' E 012°46'.
View on Google Maps.

See reports from other nearby stations

  
Tides and Currents Weather Stations Pressure Air Temp Water Temp Dewpoint Dewpoint Depression Visibility Wind Speed Wind Dir Waves Ship Positions
date/time (UTC)wind fromknots sea level pressurealtimeterstation pressurevisibilityair tempwater tempwave heightnotes
2020-Jan-27 08:01 223 6.1
2020-Jan-27 07:47 223 6.1
2020-Jan-27 07:31 223 6.1
2020-Jan-27 07:17 223 6.1
2020-Jan-27 07:01 225 6.1
2020-Jan-27 06:47 225 2 gusting 3 6.1
2020-Jan-27 06:32 225 6.1
2020-Jan-27 06:16 225 6.1
2020-Jan-27 06:01 225 0 gusting 5 6.1
2020-Jan-27 05:45 318 0 gusting 2 6.1
2020-Jan-27 05:31 318 6.1
2020-Jan-27 05:15 312 4 gusting 8 6.1
2020-Jan-27 05:00 240 0 gusting 4 6.1
2020-Jan-27 04:46 282 0 gusting 3 6.1
2020-Jan-27 04:31 175 6.1
2020-Jan-27 04:16 175 1 gusting 3 6.1
2020-Jan-27 04:01 175 6.1
2020-Jan-27 03:46 175 6.1
2020-Jan-27 03:31 175 6.1
2020-Jan-27 03:16 175 6.1
2020-Jan-27 03:01 175 6.1
2020-Jan-27 02:46 175 6.1
2020-Jan-27 02:31 175 6.1
2020-Jan-27 02:16 175 6.1
2020-Jan-27 02:01 175 6.1
2020-Jan-27 01:46 175 0 gusting 5 6.1
2020-Jan-27 01:31 187 2 gusting 3 5.6
2020-Jan-27 01:16 187 5.6
2020-Jan-27 01:02 187 0 gusting 1 5.6
2020-Jan-27 00:46 187 1 gusting 3 5.6
2020-Jan-27 00:31 161 5.6
2020-Jan-27 00:17 161 5.6
2020-Jan-27 00:00 161 0 gusting 2 5.6
2020-Jan-26 23:45 161 5.6
2020-Jan-26 23:31 161 5.6
2020-Jan-26 23:15 161 1 gusting 2 5.6
2020-Jan-26 23:00 161 1 gusting 2 5.6
2020-Jan-26 22:45 161 5.6
2020-Jan-26 22:30 161 5.6
2020-Jan-26 22:15 161 5.6
2020-Jan-26 22:01 161 5.6
2020-Jan-26 21:45 161 5.6
2020-Jan-26 21:30 161 5.6
2020-Jan-26 21:15 161 5.6
2020-Jan-26 21:00 161 0 gusting 6 5.6
2020-Jan-26 20:45 151 3 gusting 6 5.0
2020-Jan-26 20:30 141 5.0
2020-Jan-26 20:15 141 1 gusting 3 5.0
2020-Jan-26 20:00 142 1 gusting 3 5.0
2020-Jan-26 19:45 142 5.0
2020-Jan-26 19:30 142 5.0
2020-Jan-26 19:15 142 5.0
2020-Jan-26 19:00 142 5.0
2020-Jan-26 18:45 142 5.0
2020-Jan-26 18:30 142 5.6
2020-Jan-26 18:15 142 1 gusting 3 5.6
2020-Jan-26 18:00 142 0 gusting 3 6.1
2020-Jan-26 17:45 142 6.1
2020-Jan-26 17:30 142 6.7
2020-Jan-26 17:15 142 3 gusting 6 6.7
2020-Jan-26 17:00 171 3 gusting 4 7.8
2020-Jan-26 16:45 175 1 gusting 4 8.3
2020-Jan-26 16:30 175 2 gusting 5 8.9
2020-Jan-26 16:15 128 1 gusting 3 8.9
2020-Jan-26 16:00 070 2 gusting 5 9.4
2020-Jan-26 15:45 180 2 gusting 5 10.0
2020-Jan-26 15:30 289 2 gusting 6 10.6
2020-Jan-26 15:15 016 0 gusting 4 11.1
2020-Jan-26 15:00 034 2 gusting 3 11.1
2020-Jan-26 14:45 123 11.7
2020-Jan-26 14:30 123 11.7
2020-Jan-26 14:15 123 11.1
2020-Jan-26 14:02 090 11.1
2020-Jan-26 13:47 090 10.6
2020-Jan-26 13:32 090 10.6
2020-Jan-26 13:17 090 10.6
2020-Jan-26 13:02 037 10.0
2020-Jan-26 12:47 037 10.0
2020-Jan-26 12:32 037 9.4
2020-Jan-26 12:16 037 8.9
2020-Jan-26 12:01 037 8.3
2020-Jan-26 11:46 037 0 gusting 3 7.8
2020-Jan-26 11:31 037 1 gusting 3 7.8
2020-Jan-26 11:16 037 7.2
2020-Jan-26 11:01 037 6.7
2020-Jan-26 10:46 102 6.7
2020-Jan-26 10:30 102 6.1
2020-Jan-26 10:15 102 6.1
2020-Jan-26 10:00 102 5.6
2020-Jan-26 09:45 102 5.0
2020-Jan-26 09:30 102 5.0
2020-Jan-26 09:15 102 4.4
2020-Jan-26 09:00 102 4.4
2020-Jan-26 08:45 102 4.4
2020-Jan-26 08:30 102 4.4
2020-Jan-26 08:17 102 3.9
2020-Jan-26 08:15 102 3.9
2020-Jan-26 08:03 102 3.9
2020-Jan-26 07:47 102 3.3
2020-Jan-26 07:32 102 3.3
2020-Jan-26 07:16 102 2.8
2020-Jan-26 07:01 102 2.8
2020-Jan-26 06:46 102 3.3
2020-Jan-26 06:31 102 3.3
2020-Jan-26 06:16 102 3.3
2020-Jan-26 06:02 102 3.3
2020-Jan-26 05:47 102 3.9
2020-Jan-26 05:31 102 3.9
2020-Jan-26 05:16 104 4.4
2020-Jan-26 05:01 104 4.4
2020-Jan-26 04:46 085 5.0
2020-Jan-26 04:32 344 0 gusting 2 4.4
2020-Jan-26 04:17 344 4.4
2020-Jan-26 04:01 344 4.4
2020-Jan-26 03:46 328 1 gusting 4 4.4
2020-Jan-26 03:31 238 2 gusting 3 5.0
2020-Jan-26 03:16 280 5.0
2020-Jan-26 03:01 280 5.0
2020-Jan-26 02:45 280 5.0
2020-Jan-26 02:31 160 4.4
2020-Jan-26 02:15 160 4.4
2020-Jan-26 02:01 160 4.4
2020-Jan-26 01:46 160 5.0
2020-Jan-26 01:31 160 4.4
2020-Jan-26 01:16 160 3.9
2020-Jan-26 01:00 160 4.4
2020-Jan-26 00:46 160 4.4
2020-Jan-26 00:31 160 3.9
2020-Jan-26 00:16 160 3.9
2020-Jan-26 00:01 160 0 gusting 4 4.4
2020-Jan-25 23:46 160 4.4
2020-Jan-25 23:30 160 5.0
2020-Jan-25 23:16 160 0 gusting 2 5.0
2020-Jan-25 22:45 160 5.6
2020-Jan-25 22:30 160 5.6
2020-Jan-25 22:15 160 6.1
2020-Jan-25 22:00 160 6.7
2020-Jan-25 21:46 160 6.7
2020-Jan-25 21:30 160 6.7
2020-Jan-25 21:15 160 7.2
2020-Jan-25 21:00 160 7.2
2020-Jan-25 20:45 160 7.8
2020-Jan-25 20:15 160 7.8
2020-Jan-25 20:00 161 1 gusting 3 7.8
2020-Jan-25 19:45 161 7.8
2020-Jan-25 19:30 161 8.3
2020-Jan-25 19:15 148 8.3
2020-Jan-25 19:00 148 0 gusting 5 8.3
2020-Jan-25 18:45 159 2 gusting 7 8.3
2020-Jan-25 18:31 164 1 gusting 6 8.3
2020-Jan-25 18:15 100 8.3
2020-Jan-25 18:00 127 1 gusting 3 8.3
2020-Jan-25 17:45 134 0 gusting 2 8.3
2020-Jan-25 17:30 134 8.3
2020-Jan-25 17:15 134 8.9
2020-Jan-25 17:00 134 0 gusting 4 8.9
2020-Jan-25 16:45 124 1 gusting 5 8.9
2020-Jan-25 16:30 104 2 gusting 5 9.4
2020-Jan-25 16:15 086 1 gusting 6 10.0
2020-Jan-25 16:00 005 5 gusting 8 10.6
2020-Jan-25 15:45 326 2 gusting 4 10.6
2020-Jan-25 15:30 169 11.1
2020-Jan-25 15:15 155 5 gusting 8 11.1
2020-Jan-25 15:00 157 6 gusting 8 11.7
2020-Jan-25 14:45 169 5 gusting 10 11.7
2020-Jan-25 14:30 176 6 gusting 11 12.2
2020-Jan-25 14:15 240 4 gusting 10 11.7
2020-Jan-25 14:00 171 8 gusting 13 11.7
2020-Jan-25 13:31 034 0 gusting 7 11.1
2020-Jan-25 13:17 348 3 gusting 5 10.6
2020-Jan-25 13:03 338 1 gusting 3 10.6
2020-Jan-25 12:46 139 10.6
2020-Jan-25 12:32 005 1 gusting 3 10.0
2020-Jan-25 12:16 021 2 gusting 4 9.4
2020-Jan-25 12:01 024 5 gusting 7 10.0
2020-Jan-25 11:46 202 10.0
2020-Jan-25 11:33 028 1 gusting 4 10.0
2020-Jan-25 11:16 171 10.0
2020-Jan-25 11:01 173 9.4
2020-Jan-25 10:45 173 8.9
2020-Jan-25 10:30 173 8.9
2020-Jan-25 10:15 173 8.3
2020-Jan-25 10:00 173 8.3
2020-Jan-25 09:46 173 8.3
2020-Jan-25 09:30 173 7.2
2020-Jan-25 09:15 173 6.7
2020-Jan-25 09:00 173 6.7